Index of /20260427/WXO-DD/model_rdps/10km/12/059
Name Last modified Size Description
Parent Directory -
20260427T12Z_MSC_RDPS_AbsoluteVorticity_IsbL-0250_RLatLon0.09_PT059H.grib2 2026-04-27 14:58 634K
20260427T12Z_MSC_RDPS_AbsoluteVorticity_IsbL-0500_RLatLon0.09_PT059H.grib2 2026-04-27 14:58 576K
20260427T12Z_MSC_RDPS_AbsoluteVorticity_IsbL-0700_RLatLon0.09_PT059H.grib2 2026-04-27 14:58 622K
20260427T12Z_MSC_RDPS_AbsoluteVorticity_IsbL-0850_RLatLon0.09_PT059H.grib2 2026-04-27 14:58 770K
20260427T12Z_MSC_RDPS_AirTemp_AGL-120m_RLatLon0.09_PT059H.grib2 2026-04-27 14:58 388K
20260427T12Z_MSC_RDPS_AirTemp_AGL-2m_RLatLon0.09_PT059H.grib2 2026-04-27 14:58 619K
20260427T12Z_MSC_RDPS_AirTemp_AGL-40m_RLatLon0.09_PT059H.grib2 2026-04-27 14:58 397K
20260427T12Z_MSC_RDPS_AirTemp_AGL-80m_RLatLon0.09_PT059H.grib2 2026-04-27 14:58 392K
20260427T12Z_MSC_RDPS_AirTemp_IsbL-0001_RLatLon0.09_PT059H.grib2 2026-04-27 14:58 313K
20260427T12Z_MSC_RDPS_AirTemp_IsbL-0005_RLatLon0.09_PT059H.grib2 2026-04-27 14:58 292K
20260427T12Z_MSC_RDPS_AirTemp_IsbL-0010_RLatLon0.09_PT059H.grib2 2026-04-27 14:58 303K
20260427T12Z_MSC_RDPS_AirTemp_IsbL-0020_RLatLon0.09_PT059H.grib2 2026-04-27 14:58 318K
20260427T12Z_MSC_RDPS_AirTemp_IsbL-0030_RLatLon0.09_PT059H.grib2 2026-04-27 14:58 342K
20260427T12Z_MSC_RDPS_AirTemp_IsbL-0050_RLatLon0.09_PT059H.grib2 2026-04-27 14:58 315K
20260427T12Z_MSC_RDPS_AirTemp_IsbL-0100_RLatLon0.09_PT059H.grib2 2026-04-27 14:58 433K
20260427T12Z_MSC_RDPS_AirTemp_IsbL-0150_RLatLon0.09_PT059H.grib2 2026-04-27 14:58 431K
20260427T12Z_MSC_RDPS_AirTemp_IsbL-0175_RLatLon0.09_PT059H.grib2 2026-04-27 14:58 418K
20260427T12Z_MSC_RDPS_AirTemp_IsbL-0200_RLatLon0.09_PT059H.grib2 2026-04-27 14:58 424K
20260427T12Z_MSC_RDPS_AirTemp_IsbL-0225_RLatLon0.09_PT059H.grib2 2026-04-27 14:58 424K
20260427T12Z_MSC_RDPS_AirTemp_IsbL-0250_RLatLon0.09_PT059H.grib2 2026-04-27 14:58 434K
20260427T12Z_MSC_RDPS_AirTemp_IsbL-0275_RLatLon0.09_PT059H.grib2 2026-04-27 14:58 413K
20260427T12Z_MSC_RDPS_AirTemp_IsbL-0300_RLatLon0.09_PT059H.grib2 2026-04-27 14:58 420K
20260427T12Z_MSC_RDPS_AirTemp_IsbL-0350_RLatLon0.09_PT059H.grib2 2026-04-27 14:58 431K
20260427T12Z_MSC_RDPS_AirTemp_IsbL-0400_RLatLon0.09_PT059H.grib2 2026-04-27 14:58 432K
20260427T12Z_MSC_RDPS_AirTemp_IsbL-0450_RLatLon0.09_PT059H.grib2 2026-04-27 14:58 402K
20260427T12Z_MSC_RDPS_AirTemp_IsbL-0500_RLatLon0.09_PT059H.grib2 2026-04-27 14:58 413K
20260427T12Z_MSC_RDPS_AirTemp_IsbL-0550_RLatLon0.09_PT059H.grib2 2026-04-27 14:58 432K
20260427T12Z_MSC_RDPS_AirTemp_IsbL-0600_RLatLon0.09_PT059H.grib2 2026-04-27 14:58 451K
20260427T12Z_MSC_RDPS_AirTemp_IsbL-0650_RLatLon0.09_PT059H.grib2 2026-04-27 14:58 465K
20260427T12Z_MSC_RDPS_AirTemp_IsbL-0700_RLatLon0.09_PT059H.grib2 2026-04-27 14:58 383K
20260427T12Z_MSC_RDPS_AirTemp_IsbL-0750_RLatLon0.09_PT059H.grib2 2026-04-27 14:58 413K
20260427T12Z_MSC_RDPS_AirTemp_IsbL-0800_RLatLon0.09_PT059H.grib2 2026-04-27 14:58 450K
20260427T12Z_MSC_RDPS_AirTemp_IsbL-0850_RLatLon0.09_PT059H.grib2 2026-04-27 14:58 495K
20260427T12Z_MSC_RDPS_AirTemp_IsbL-0875_RLatLon0.09_PT059H.grib2 2026-04-27 14:58 515K
20260427T12Z_MSC_RDPS_AirTemp_IsbL-0900_RLatLon0.09_PT059H.grib2 2026-04-27 14:58 525K
20260427T12Z_MSC_RDPS_AirTemp_IsbL-0925_RLatLon0.09_PT059H.grib2 2026-04-27 14:58 522K
20260427T12Z_MSC_RDPS_AirTemp_IsbL-0950_RLatLon0.09_PT059H.grib2 2026-04-27 14:58 523K
20260427T12Z_MSC_RDPS_AirTemp_IsbL-0970_RLatLon0.09_PT059H.grib2 2026-04-27 14:58 514K
20260427T12Z_MSC_RDPS_AirTemp_IsbL-0985_RLatLon0.09_PT059H.grib2 2026-04-27 14:58 515K
20260427T12Z_MSC_RDPS_AirTemp_IsbL-1000_RLatLon0.09_PT059H.grib2 2026-04-27 14:58 505K
20260427T12Z_MSC_RDPS_AirTemp_IsbL-1015_RLatLon0.09_PT059H.grib2 2026-04-27 14:58 502K
20260427T12Z_MSC_RDPS_Albedo_Sfc_RLatLon0.09_PT059H.grib2 2026-04-27 14:58 155K
20260427T12Z_MSC_RDPS_CAPE_Sfc_RLatLon0.09_PT059H.grib2 2026-04-27 14:58 1.8M
20260427T12Z_MSC_RDPS_CIN_Sfc_RLatLon0.09_PT059H.grib2 2026-04-27 14:58 1.2M
20260427T12Z_MSC_RDPS_CloudWater_EAtm_RLatLon0.09_PT059H.grib2 2026-04-27 14:58 223K
20260427T12Z_MSC_RDPS_ConvectivePrecip-Accum_Sfc_RLatLon0.09_PT059H.grib2 2026-04-27 14:58 1.2M
20260427T12Z_MSC_RDPS_DewPointDepression_AGL-2m_RLatLon0.09_PT059H.grib2 2026-04-27 14:58 413K
20260427T12Z_MSC_RDPS_DewPointDepression_IsbL-0001_RLatLon0.09_PT059H.grib2 2026-04-27 14:58 193
20260427T12Z_MSC_RDPS_DewPointDepression_IsbL-0005_RLatLon0.09_PT059H.grib2 2026-04-27 14:58 193
20260427T12Z_MSC_RDPS_DewPointDepression_IsbL-0010_RLatLon0.09_PT059H.grib2 2026-04-27 14:58 193
20260427T12Z_MSC_RDPS_DewPointDepression_IsbL-0020_RLatLon0.09_PT059H.grib2 2026-04-27 14:58 193
20260427T12Z_MSC_RDPS_DewPointDepression_IsbL-0030_RLatLon0.09_PT059H.grib2 2026-04-27 14:58 193
20260427T12Z_MSC_RDPS_DewPointDepression_IsbL-0050_RLatLon0.09_PT059H.grib2 2026-04-27 14:58 82K
20260427T12Z_MSC_RDPS_DewPointDepression_IsbL-0100_RLatLon0.09_PT059H.grib2 2026-04-27 14:58 131K
20260427T12Z_MSC_RDPS_DewPointDepression_IsbL-0150_RLatLon0.09_PT059H.grib2 2026-04-27 14:58 153K
20260427T12Z_MSC_RDPS_DewPointDepression_IsbL-0175_RLatLon0.09_PT059H.grib2 2026-04-27 14:58 183K
20260427T12Z_MSC_RDPS_DewPointDepression_IsbL-0200_RLatLon0.09_PT059H.grib2 2026-04-27 14:58 223K
20260427T12Z_MSC_RDPS_DewPointDepression_IsbL-0225_RLatLon0.09_PT059H.grib2 2026-04-27 14:58 269K
20260427T12Z_MSC_RDPS_DewPointDepression_IsbL-0250_RLatLon0.09_PT059H.grib2 2026-04-27 14:58 308K
20260427T12Z_MSC_RDPS_DewPointDepression_IsbL-0275_RLatLon0.09_PT059H.grib2 2026-04-27 14:58 314K
20260427T12Z_MSC_RDPS_DewPointDepression_IsbL-0300_RLatLon0.09_PT059H.grib2 2026-04-27 14:58 331K
20260427T12Z_MSC_RDPS_DewPointDepression_IsbL-0350_RLatLon0.09_PT059H.grib2 2026-04-27 14:58 333K
20260427T12Z_MSC_RDPS_DewPointDepression_IsbL-0400_RLatLon0.09_PT059H.grib2 2026-04-27 14:58 345K
20260427T12Z_MSC_RDPS_DewPointDepression_IsbL-0450_RLatLon0.09_PT059H.grib2 2026-04-27 14:58 353K
20260427T12Z_MSC_RDPS_DewPointDepression_IsbL-0500_RLatLon0.09_PT059H.grib2 2026-04-27 14:58 361K
20260427T12Z_MSC_RDPS_DewPointDepression_IsbL-0550_RLatLon0.09_PT059H.grib2 2026-04-27 14:58 375K
20260427T12Z_MSC_RDPS_DewPointDepression_IsbL-0600_RLatLon0.09_PT059H.grib2 2026-04-27 14:58 388K
20260427T12Z_MSC_RDPS_DewPointDepression_IsbL-0650_RLatLon0.09_PT059H.grib2 2026-04-27 14:58 394K
20260427T12Z_MSC_RDPS_DewPointDepression_IsbL-0700_RLatLon0.09_PT059H.grib2 2026-04-27 14:58 402K
20260427T12Z_MSC_RDPS_DewPointDepression_IsbL-0750_RLatLon0.09_PT059H.grib2 2026-04-27 14:58 421K
20260427T12Z_MSC_RDPS_DewPointDepression_IsbL-0800_RLatLon0.09_PT059H.grib2 2026-04-27 14:58 447K
20260427T12Z_MSC_RDPS_DewPointDepression_IsbL-0850_RLatLon0.09_PT059H.grib2 2026-04-27 14:58 469K
20260427T12Z_MSC_RDPS_DewPointDepression_IsbL-0875_RLatLon0.09_PT059H.grib2 2026-04-27 14:58 472K
20260427T12Z_MSC_RDPS_DewPointDepression_IsbL-0900_RLatLon0.09_PT059H.grib2 2026-04-27 14:58 466K
20260427T12Z_MSC_RDPS_DewPointDepression_IsbL-0925_RLatLon0.09_PT059H.grib2 2026-04-27 14:58 452K
20260427T12Z_MSC_RDPS_DewPointDepression_IsbL-0950_RLatLon0.09_PT059H.grib2 2026-04-27 14:58 442K
20260427T12Z_MSC_RDPS_DewPointDepression_IsbL-0970_RLatLon0.09_PT059H.grib2 2026-04-27 14:58 429K
20260427T12Z_MSC_RDPS_DewPointDepression_IsbL-0985_RLatLon0.09_PT059H.grib2 2026-04-27 14:58 424K
20260427T12Z_MSC_RDPS_DewPointDepression_IsbL-1000_RLatLon0.09_PT059H.grib2 2026-04-27 14:58 421K
20260427T12Z_MSC_RDPS_DewPointDepression_IsbL-1015_RLatLon0.09_PT059H.grib2 2026-04-27 14:58 410K
20260427T12Z_MSC_RDPS_DewPoint_AGL-2m_RLatLon0.09_PT059H.grib2 2026-04-27 14:58 392K
20260427T12Z_MSC_RDPS_DownwardLongwaveRadiationFlux-Accum_Sfc_RLatLon0.09_PT059H.grib2 2026-04-27 14:58 394K
20260427T12Z_MSC_RDPS_DownwardShortwaveRadiationFlux-Accum_NTAtm_RLatLon0.09_PT059H.grib2 2026-04-27 14:58 98K
20260427T12Z_MSC_RDPS_DownwardShortwaveRadiationFlux-Accum_Sfc_RLatLon0.09_PT059H.grib2 2026-04-27 14:58 605K
20260427T12Z_MSC_RDPS_FreezingRain-Accum1h_Sfc_RLatLon0.09_PT059H.grib2 2026-04-27 14:58 11K
20260427T12Z_MSC_RDPS_FreezingRain-Accum_Sfc_RLatLon0.09_PT059H.grib2 2026-04-27 14:58 177K
20260427T12Z_MSC_RDPS_GeopotentialHeight_IsbL-0001_RLatLon0.09_PT059H.grib2 2026-04-27 14:58 244K
20260427T12Z_MSC_RDPS_GeopotentialHeight_IsbL-0005_RLatLon0.09_PT059H.grib2 2026-04-27 14:58 311K
20260427T12Z_MSC_RDPS_GeopotentialHeight_IsbL-0010_RLatLon0.09_PT059H.grib2 2026-04-27 14:58 340K
20260427T12Z_MSC_RDPS_GeopotentialHeight_IsbL-0020_RLatLon0.09_PT059H.grib2 2026-04-27 14:58 306K
20260427T12Z_MSC_RDPS_GeopotentialHeight_IsbL-0030_RLatLon0.09_PT059H.grib2 2026-04-27 14:58 308K
20260427T12Z_MSC_RDPS_GeopotentialHeight_IsbL-0050_RLatLon0.09_PT059H.grib2 2026-04-27 14:58 341K
20260427T12Z_MSC_RDPS_GeopotentialHeight_IsbL-0100_RLatLon0.09_PT059H.grib2 2026-04-27 14:58 287K
20260427T12Z_MSC_RDPS_GeopotentialHeight_IsbL-0150_RLatLon0.09_PT059H.grib2 2026-04-27 14:58 233K
20260427T12Z_MSC_RDPS_GeopotentialHeight_IsbL-0175_RLatLon0.09_PT059H.grib2 2026-04-27 14:58 267K
20260427T12Z_MSC_RDPS_GeopotentialHeight_IsbL-0200_RLatLon0.09_PT059H.grib2 2026-04-27 14:58 269K
20260427T12Z_MSC_RDPS_GeopotentialHeight_IsbL-0225_RLatLon0.09_PT059H.grib2 2026-04-27 14:58 270K
20260427T12Z_MSC_RDPS_GeopotentialHeight_IsbL-0250_RLatLon0.09_PT059H.grib2 2026-04-27 14:58 271K
20260427T12Z_MSC_RDPS_GeopotentialHeight_IsbL-0275_RLatLon0.09_PT059H.grib2 2026-04-27 14:58 270K
20260427T12Z_MSC_RDPS_GeopotentialHeight_IsbL-0300_RLatLon0.09_PT059H.grib2 2026-04-27 14:58 238K
20260427T12Z_MSC_RDPS_GeopotentialHeight_IsbL-0350_RLatLon0.09_PT059H.grib2 2026-04-27 14:58 234K
20260427T12Z_MSC_RDPS_GeopotentialHeight_IsbL-0400_RLatLon0.09_PT059H.grib2 2026-04-27 14:58 230K
20260427T12Z_MSC_RDPS_GeopotentialHeight_IsbL-0450_RLatLon0.09_PT059H.grib2 2026-04-27 14:58 298K
20260427T12Z_MSC_RDPS_GeopotentialHeight_IsbL-0500_RLatLon0.09_PT059H.grib2 2026-04-27 14:58 294K
20260427T12Z_MSC_RDPS_GeopotentialHeight_IsbL-0550_RLatLon0.09_PT059H.grib2 2026-04-27 14:58 290K
20260427T12Z_MSC_RDPS_GeopotentialHeight_IsbL-0600_RLatLon0.09_PT059H.grib2 2026-04-27 14:58 286K
20260427T12Z_MSC_RDPS_GeopotentialHeight_IsbL-0650_RLatLon0.09_PT059H.grib2 2026-04-27 14:58 257K
20260427T12Z_MSC_RDPS_GeopotentialHeight_IsbL-0700_RLatLon0.09_PT059H.grib2 2026-04-27 14:58 337K
20260427T12Z_MSC_RDPS_GeopotentialHeight_IsbL-0750_RLatLon0.09_PT059H.grib2 2026-04-27 14:58 339K
20260427T12Z_MSC_RDPS_GeopotentialHeight_IsbL-0800_RLatLon0.09_PT059H.grib2 2026-04-27 14:58 345K
20260427T12Z_MSC_RDPS_GeopotentialHeight_IsbL-0850_RLatLon0.09_PT059H.grib2 2026-04-27 14:58 354K
20260427T12Z_MSC_RDPS_GeopotentialHeight_IsbL-0875_RLatLon0.09_PT059H.grib2 2026-04-27 14:58 357K
20260427T12Z_MSC_RDPS_GeopotentialHeight_IsbL-0900_RLatLon0.09_PT059H.grib2 2026-04-27 14:58 394K
20260427T12Z_MSC_RDPS_GeopotentialHeight_IsbL-0925_RLatLon0.09_PT059H.grib2 2026-04-27 14:58 398K
20260427T12Z_MSC_RDPS_GeopotentialHeight_IsbL-0950_RLatLon0.09_PT059H.grib2 2026-04-27 14:58 401K
20260427T12Z_MSC_RDPS_GeopotentialHeight_IsbL-0970_RLatLon0.09_PT059H.grib2 2026-04-27 14:58 407K
20260427T12Z_MSC_RDPS_GeopotentialHeight_IsbL-0985_RLatLon0.09_PT059H.grib2 2026-04-27 14:58 416K
20260427T12Z_MSC_RDPS_GeopotentialHeight_IsbL-1000_RLatLon0.09_PT059H.grib2 2026-04-27 14:58 428K
20260427T12Z_MSC_RDPS_GeopotentialHeight_IsbL-1015_RLatLon0.09_PT059H.grib2 2026-04-27 14:58 443K
20260427T12Z_MSC_RDPS_Humidex_Sfc_RLatLon0.09_PT059H.grib2 2026-04-27 14:58 2.4M
20260427T12Z_MSC_RDPS_IcePellets-Accum1h_Sfc_RLatLon0.09_PT059H.grib2 2026-04-27 14:58 2.6K
20260427T12Z_MSC_RDPS_IcePellets-Accum_Sfc_RLatLon0.09_PT059H.grib2 2026-04-27 14:58 26K
20260427T12Z_MSC_RDPS_KIndex_Sfc_RLatLon0.09_PT059H.grib2 2026-04-27 14:58 2.5M
20260427T12Z_MSC_RDPS_LatentHeatNetFlux_Sfc_RLatLon0.09_PT059H.grib2 2026-04-27 14:58 363K
20260427T12Z_MSC_RDPS_LiftedIndex-MU-VT_IsbL-0500_RLatLon0.09_PT059H.grib2 2026-04-27 14:58 2.4M
20260427T12Z_MSC_RDPS_NetLongwaveRadiationFlux-Accum_Sfc_RLatLon0.09_PT059H.grib2 2026-04-27 14:58 581K
20260427T12Z_MSC_RDPS_NetShortwaveRadiationFlux-Accum_Sfc_RLatLon0.09_PT059H.grib2 2026-04-27 14:58 608K
20260427T12Z_MSC_RDPS_PlanetaryBoundaryLayerHeight_Sfc_RLatLon0.09_PT059H.grib2 2026-04-27 14:58 1.0M
20260427T12Z_MSC_RDPS_Precip-Accum1h_Sfc_RLatLon0.09_PT059H.grib2 2026-04-27 14:58 1.2M
20260427T12Z_MSC_RDPS_Precip-Accum_Sfc_RLatLon0.09_PT059H.grib2 2026-04-27 14:58 2.1M
20260427T12Z_MSC_RDPS_PrecipRate_Sfc_RLatLon0.09_PT059H.grib2 2026-04-27 14:58 175K
20260427T12Z_MSC_RDPS_PrecipType-Instant_Sfc_RLatLon0.09_PT059H.grib2 2026-04-27 14:58 565K
20260427T12Z_MSC_RDPS_Pressure-Trend3h_Sfc_RLatLon0.09_PT059H.grib2 2026-04-27 14:58 1.2M
20260427T12Z_MSC_RDPS_Pressure_MSL_RLatLon0.09_PT059H.grib2 2026-04-27 14:58 328K
20260427T12Z_MSC_RDPS_Pressure_PVU-1.5_RLatLon0.09_PT059H.grib2 2026-04-27 14:58 2.5M
20260427T12Z_MSC_RDPS_Pressure_PVU-1_RLatLon0.09_PT059H.grib2 2026-04-27 14:58 2.4M
20260427T12Z_MSC_RDPS_Pressure_PVU-2_RLatLon0.09_PT059H.grib2 2026-04-27 14:58 2.4M
20260427T12Z_MSC_RDPS_Pressure_Sfc_RLatLon0.09_PT059H.grib2 2026-04-27 14:58 500K
20260427T12Z_MSC_RDPS_RadiativeTemp_Sfc_RLatLon0.09_PT059H.grib2 2026-04-27 14:58 314K
20260427T12Z_MSC_RDPS_Rain-Accum1h_Sfc_RLatLon0.09_PT059H.grib2 2026-04-27 14:58 534K
20260427T12Z_MSC_RDPS_Rain-Accum_Sfc_RLatLon0.09_PT059H.grib2 2026-04-27 14:58 1.6M
20260427T12Z_MSC_RDPS_RelativeHumidity_AGL-2m_RLatLon0.09_PT059H.grib2 2026-04-27 14:58 1.0M
20260427T12Z_MSC_RDPS_RelativeHumidity_IsbL-0010_RLatLon0.09_PT059H.grib2 2026-04-27 14:58 620K
20260427T12Z_MSC_RDPS_RelativeHumidity_IsbL-0020_RLatLon0.09_PT059H.grib2 2026-04-27 14:58 643K
20260427T12Z_MSC_RDPS_RelativeHumidity_IsbL-0030_RLatLon0.09_PT059H.grib2 2026-04-27 14:58 605K
20260427T12Z_MSC_RDPS_RelativeHumidity_IsbL-0050_RLatLon0.09_PT059H.grib2 2026-04-27 14:58 371K
20260427T12Z_MSC_RDPS_RelativeHumidity_IsbL-0100_RLatLon0.09_PT059H.grib2 2026-04-27 14:58 288K
20260427T12Z_MSC_RDPS_RelativeHumidity_IsbL-0150_RLatLon0.09_PT059H.grib2 2026-04-27 14:58 422K
20260427T12Z_MSC_RDPS_RelativeHumidity_IsbL-0175_RLatLon0.09_PT059H.grib2 2026-04-27 14:58 494K
20260427T12Z_MSC_RDPS_RelativeHumidity_IsbL-0200_RLatLon0.09_PT059H.grib2 2026-04-27 14:58 570K
20260427T12Z_MSC_RDPS_RelativeHumidity_IsbL-0225_RLatLon0.09_PT059H.grib2 2026-04-27 14:58 638K
20260427T12Z_MSC_RDPS_RelativeHumidity_IsbL-0250_RLatLon0.09_PT059H.grib2 2026-04-27 14:58 710K
20260427T12Z_MSC_RDPS_RelativeHumidity_IsbL-0275_RLatLon0.09_PT059H.grib2 2026-04-27 14:58 734K
20260427T12Z_MSC_RDPS_RelativeHumidity_IsbL-0300_RLatLon0.09_PT059H.grib2 2026-04-27 14:58 775K
20260427T12Z_MSC_RDPS_RelativeHumidity_IsbL-0350_RLatLon0.09_PT059H.grib2 2026-04-27 14:58 790K
20260427T12Z_MSC_RDPS_RelativeHumidity_IsbL-0400_RLatLon0.09_PT059H.grib2 2026-04-27 14:58 804K
20260427T12Z_MSC_RDPS_RelativeHumidity_IsbL-0450_RLatLon0.09_PT059H.grib2 2026-04-27 14:58 808K
20260427T12Z_MSC_RDPS_RelativeHumidity_IsbL-0500_RLatLon0.09_PT059H.grib2 2026-04-27 14:58 815K
20260427T12Z_MSC_RDPS_RelativeHumidity_IsbL-0550_RLatLon0.09_PT059H.grib2 2026-04-27 14:58 842K
20260427T12Z_MSC_RDPS_RelativeHumidity_IsbL-0600_RLatLon0.09_PT059H.grib2 2026-04-27 14:58 854K
20260427T12Z_MSC_RDPS_RelativeHumidity_IsbL-0650_RLatLon0.09_PT059H.grib2 2026-04-27 14:58 866K
20260427T12Z_MSC_RDPS_RelativeHumidity_IsbL-0700_RLatLon0.09_PT059H.grib2 2026-04-27 14:58 885K
20260427T12Z_MSC_RDPS_RelativeHumidity_IsbL-0750_RLatLon0.09_PT059H.grib2 2026-04-27 14:58 926K
20260427T12Z_MSC_RDPS_RelativeHumidity_IsbL-0800_RLatLon0.09_PT059H.grib2 2026-04-27 14:58 1.0M
20260427T12Z_MSC_RDPS_RelativeHumidity_IsbL-0850_RLatLon0.09_PT059H.grib2 2026-04-27 14:58 1.0M
20260427T12Z_MSC_RDPS_RelativeHumidity_IsbL-0875_RLatLon0.09_PT059H.grib2 2026-04-27 14:58 1.0M
20260427T12Z_MSC_RDPS_RelativeHumidity_IsbL-0900_RLatLon0.09_PT059H.grib2 2026-04-27 14:58 1.1M
20260427T12Z_MSC_RDPS_RelativeHumidity_IsbL-0925_RLatLon0.09_PT059H.grib2 2026-04-27 14:58 1.1M
20260427T12Z_MSC_RDPS_RelativeHumidity_IsbL-0950_RLatLon0.09_PT059H.grib2 2026-04-27 14:58 1.1M
20260427T12Z_MSC_RDPS_RelativeHumidity_IsbL-0970_RLatLon0.09_PT059H.grib2 2026-04-27 14:58 1.0M
20260427T12Z_MSC_RDPS_RelativeHumidity_IsbL-0985_RLatLon0.09_PT059H.grib2 2026-04-27 14:58 1.0M
20260427T12Z_MSC_RDPS_RelativeHumidity_IsbL-1000_RLatLon0.09_PT059H.grib2 2026-04-27 14:58 1.0M
20260427T12Z_MSC_RDPS_RelativeHumidity_IsbL-1015_RLatLon0.09_PT059H.grib2 2026-04-27 14:58 1.0M
20260427T12Z_MSC_RDPS_Runoff-Accum_Sfc_RLatLon0.09_PT059H.grib2 2026-04-27 14:58 55K
20260427T12Z_MSC_RDPS_SWEATIndex_Sfc_RLatLon0.09_PT059H.grib2 2026-04-27 14:58 2.4M
20260427T12Z_MSC_RDPS_SeeingIndex_EAtm_RLatLon0.09_PT059H.grib2 2026-04-27 14:58 1.0M
20260427T12Z_MSC_RDPS_SensibleHeatNetFlux_Sfc_RLatLon0.09_PT059H.grib2 2026-04-27 14:58 330K
20260427T12Z_MSC_RDPS_ShowalterIndex_IsbL-0500_RLatLon0.09_PT059H.grib2 2026-04-27 14:58 2.6M
20260427T12Z_MSC_RDPS_SkyTransparencyIndex_EAtm_RLatLon0.09_PT059H.grib2 2026-04-27 14:58 686K
20260427T12Z_MSC_RDPS_Snow-Accum1h_Sfc_RLatLon0.09_PT059H.grib2 2026-04-27 14:58 457K
20260427T12Z_MSC_RDPS_Snow-Accum_Sfc_RLatLon0.09_PT059H.grib2 2026-04-27 14:58 809K
20260427T12Z_MSC_RDPS_SnowDensity_Sfc_RLatLon0.09_PT059H.grib2 2026-04-27 14:58 185K
20260427T12Z_MSC_RDPS_SnowDepth_Sfc_RLatLon0.09_PT059H.grib2 2026-04-27 14:58 694K
20260427T12Z_MSC_RDPS_SoilTemp_DBS-0to10cm_RLatLon0.09_PT059H.grib2 2026-04-27 14:58 244K
20260427T12Z_MSC_RDPS_SoilTemp_Sfc_RLatLon0.09_PT059H.grib2 2026-04-27 14:58 285K
20260427T12Z_MSC_RDPS_SoilVolumetricIceContent_Sfc_RLatLon0.09_PT059H.grib2 2026-04-27 14:58 165K
20260427T12Z_MSC_RDPS_SoilVolumetricWaterContent_DBS-0to10cm_RLatLon0.09_PT059H.grib2 2026-04-27 14:58 266K
20260427T12Z_MSC_RDPS_SoilVolumetricWaterContent_DBS-0to1cm_RLatLon0.09_PT059H.grib2 2026-04-27 14:58 337K
20260427T12Z_MSC_RDPS_SpecificHumidity_AGL-120m_RLatLon0.09_PT059H.grib2 2026-04-27 14:58 488K
20260427T12Z_MSC_RDPS_SpecificHumidity_AGL-2m_RLatLon0.09_PT059H.grib2 2026-04-27 14:58 654K
20260427T12Z_MSC_RDPS_SpecificHumidity_AGL-40m_RLatLon0.09_PT059H.grib2 2026-04-27 14:58 493K
20260427T12Z_MSC_RDPS_SpecificHumidity_AGL-80m_RLatLon0.09_PT059H.grib2 2026-04-27 14:58 489K
20260427T12Z_MSC_RDPS_SpecificHumidity_IsbL-0001_RLatLon0.09_PT059H.grib2 2026-04-27 14:58 354K
20260427T12Z_MSC_RDPS_SpecificHumidity_IsbL-0005_RLatLon0.09_PT059H.grib2 2026-04-27 14:58 354K
20260427T12Z_MSC_RDPS_SpecificHumidity_IsbL-0010_RLatLon0.09_PT059H.grib2 2026-04-27 14:58 392K
20260427T12Z_MSC_RDPS_SpecificHumidity_IsbL-0020_RLatLon0.09_PT059H.grib2 2026-04-27 14:58 383K
20260427T12Z_MSC_RDPS_SpecificHumidity_IsbL-0030_RLatLon0.09_PT059H.grib2 2026-04-27 14:58 473K
20260427T12Z_MSC_RDPS_SpecificHumidity_IsbL-0050_RLatLon0.09_PT059H.grib2 2026-04-27 14:58 450K
20260427T12Z_MSC_RDPS_SpecificHumidity_IsbL-0100_RLatLon0.09_PT059H.grib2 2026-04-27 14:58 386K
20260427T12Z_MSC_RDPS_SpecificHumidity_IsbL-0150_RLatLon0.09_PT059H.grib2 2026-04-27 14:58 465K
20260427T12Z_MSC_RDPS_SpecificHumidity_IsbL-0175_RLatLon0.09_PT059H.grib2 2026-04-27 14:58 450K
20260427T12Z_MSC_RDPS_SpecificHumidity_IsbL-0200_RLatLon0.09_PT059H.grib2 2026-04-27 14:58 483K
20260427T12Z_MSC_RDPS_SpecificHumidity_IsbL-0225_RLatLon0.09_PT059H.grib2 2026-04-27 14:58 470K
20260427T12Z_MSC_RDPS_SpecificHumidity_IsbL-0250_RLatLon0.09_PT059H.grib2 2026-04-27 14:58 531K
20260427T12Z_MSC_RDPS_SpecificHumidity_IsbL-0275_RLatLon0.09_PT059H.grib2 2026-04-27 14:58 487K
20260427T12Z_MSC_RDPS_SpecificHumidity_IsbL-0300_RLatLon0.09_PT059H.grib2 2026-04-27 14:58 459K
20260427T12Z_MSC_RDPS_SpecificHumidity_IsbL-0350_RLatLon0.09_PT059H.grib2 2026-04-27 14:58 571K
20260427T12Z_MSC_RDPS_SpecificHumidity_IsbL-0400_RLatLon0.09_PT059H.grib2 2026-04-27 14:58 527K
20260427T12Z_MSC_RDPS_SpecificHumidity_IsbL-0450_RLatLon0.09_PT059H.grib2 2026-04-27 14:58 579K
20260427T12Z_MSC_RDPS_SpecificHumidity_IsbL-0500_RLatLon0.09_PT059H.grib2 2026-04-27 14:58 516K
20260427T12Z_MSC_RDPS_SpecificHumidity_IsbL-0550_RLatLon0.09_PT059H.grib2 2026-04-27 14:58 592K
20260427T12Z_MSC_RDPS_SpecificHumidity_IsbL-0600_RLatLon0.09_PT059H.grib2 2026-04-27 14:58 649K
20260427T12Z_MSC_RDPS_SpecificHumidity_IsbL-0650_RLatLon0.09_PT059H.grib2 2026-04-27 14:58 567K
20260427T12Z_MSC_RDPS_SpecificHumidity_IsbL-0700_RLatLon0.09_PT059H.grib2 2026-04-27 14:58 608K
20260427T12Z_MSC_RDPS_SpecificHumidity_IsbL-0750_RLatLon0.09_PT059H.grib2 2026-04-27 14:58 660K
20260427T12Z_MSC_RDPS_SpecificHumidity_IsbL-0800_RLatLon0.09_PT059H.grib2 2026-04-27 14:58 734K
20260427T12Z_MSC_RDPS_SpecificHumidity_IsbL-0850_RLatLon0.09_PT059H.grib2 2026-04-27 14:58 801K
20260427T12Z_MSC_RDPS_SpecificHumidity_IsbL-0875_RLatLon0.09_PT059H.grib2 2026-04-27 14:58 690K
20260427T12Z_MSC_RDPS_SpecificHumidity_IsbL-0900_RLatLon0.09_PT059H.grib2 2026-04-27 14:58 704K
20260427T12Z_MSC_RDPS_SpecificHumidity_IsbL-0925_RLatLon0.09_PT059H.grib2 2026-04-27 14:58 706K
20260427T12Z_MSC_RDPS_SpecificHumidity_IsbL-0950_RLatLon0.09_PT059H.grib2 2026-04-27 14:58 705K
20260427T12Z_MSC_RDPS_SpecificHumidity_IsbL-0970_RLatLon0.09_PT059H.grib2 2026-04-27 14:58 692K
20260427T12Z_MSC_RDPS_SpecificHumidity_IsbL-0985_RLatLon0.09_PT059H.grib2 2026-04-27 14:58 683K
20260427T12Z_MSC_RDPS_SpecificHumidity_IsbL-1000_RLatLon0.09_PT059H.grib2 2026-04-27 14:58 676K
20260427T12Z_MSC_RDPS_SpecificHumidity_IsbL-1015_RLatLon0.09_PT059H.grib2 2026-04-27 14:58 666K
20260427T12Z_MSC_RDPS_SpecificHumidity_Sfc_RLatLon0.09_PT059H.grib2 2026-04-27 14:58 331K
20260427T12Z_MSC_RDPS_StormRelativeHelicity_EtaL-10000_RLatLon0.09_PT059H.grib2 2026-04-27 14:58 1.1M
20260427T12Z_MSC_RDPS_StormSeverityIndex_EtaL-10000_RLatLon0.09_PT059H.grib2 2026-04-27 14:58 1.2M
20260427T12Z_MSC_RDPS_Thickness_IsbL-0850to0700_RLatLon0.09_PT059H.grib2 2026-04-27 14:58 178K
20260427T12Z_MSC_RDPS_Thickness_IsbL-1000to0500_RLatLon0.09_PT059H.grib2 2026-04-27 14:58 139K
20260427T12Z_MSC_RDPS_Thickness_IsbL-1000to0850_RLatLon0.09_PT059H.grib2 2026-04-27 14:58 186K
20260427T12Z_MSC_RDPS_TotalCloudCover_Sfc_RLatLon0.09_PT059H.grib2 2026-04-27 14:58 645K
20260427T12Z_MSC_RDPS_TotalTotalsIndex_Sfc_RLatLon0.09_PT059H.grib2 2026-04-27 14:58 2.4M
20260427T12Z_MSC_RDPS_UVIndex-ClearSky_Sfc_RLatLon0.09_PT059H.grib2 2026-04-27 14:58 199K
20260427T12Z_MSC_RDPS_UVIndex_Sfc_RLatLon0.09_PT059H.grib2 2026-04-27 14:58 436K
20260427T12Z_MSC_RDPS_UpwardLongwaveRadiationFlux_NTAtm_RLatLon0.09_PT059H.grib2 2026-04-27 14:58 391K
20260427T12Z_MSC_RDPS_UpwardShortwaveRadiationFlux_NTAtm_RLatLon0.09_PT059H.grib2 2026-04-27 14:58 392K
20260427T12Z_MSC_RDPS_VerticalVelocity_IsbL-0250_RLatLon0.09_PT059H.grib2 2026-04-27 14:58 440K
20260427T12Z_MSC_RDPS_VerticalVelocity_IsbL-0500_RLatLon0.09_PT059H.grib2 2026-04-27 14:58 547K
20260427T12Z_MSC_RDPS_VerticalVelocity_IsbL-0700_RLatLon0.09_PT059H.grib2 2026-04-27 14:58 598K
20260427T12Z_MSC_RDPS_VerticalVelocity_IsbL-0850_RLatLon0.09_PT059H.grib2 2026-04-27 14:58 692K
20260427T12Z_MSC_RDPS_VerticalWindShear_EtaL-6500_RLatLon0.09_PT059H.grib2 2026-04-27 14:58 1.2M
20260427T12Z_MSC_RDPS_WindChill_Sfc_RLatLon0.09_PT059H.grib2 2026-04-27 14:58 1.1M
20260427T12Z_MSC_RDPS_WindDir_AGL-10m_RLatLon0.09_PT059H.grib2 2026-04-27 14:58 951K
20260427T12Z_MSC_RDPS_WindDir_AGL-120m_RLatLon0.09_PT059H.grib2 2026-04-27 14:58 604K
20260427T12Z_MSC_RDPS_WindDir_AGL-40m_RLatLon0.09_PT059H.grib2 2026-04-27 14:58 624K
20260427T12Z_MSC_RDPS_WindDir_AGL-80m_RLatLon0.09_PT059H.grib2 2026-04-27 14:58 611K
20260427T12Z_MSC_RDPS_WindDir_IsbL-0001_RLatLon0.09_PT059H.grib2 2026-04-27 14:58 311K
20260427T12Z_MSC_RDPS_WindDir_IsbL-0005_RLatLon0.09_PT059H.grib2 2026-04-27 14:58 348K
20260427T12Z_MSC_RDPS_WindDir_IsbL-0010_RLatLon0.09_PT059H.grib2 2026-04-27 14:58 384K
20260427T12Z_MSC_RDPS_WindDir_IsbL-0020_RLatLon0.09_PT059H.grib2 2026-04-27 14:58 411K
20260427T12Z_MSC_RDPS_WindDir_IsbL-0030_RLatLon0.09_PT059H.grib2 2026-04-27 14:58 412K
20260427T12Z_MSC_RDPS_WindDir_IsbL-0050_RLatLon0.09_PT059H.grib2 2026-04-27 14:58 427K
20260427T12Z_MSC_RDPS_WindDir_IsbL-0100_RLatLon0.09_PT059H.grib2 2026-04-27 14:58 436K
20260427T12Z_MSC_RDPS_WindDir_IsbL-0150_RLatLon0.09_PT059H.grib2 2026-04-27 14:58 418K
20260427T12Z_MSC_RDPS_WindDir_IsbL-0175_RLatLon0.09_PT059H.grib2 2026-04-27 14:58 440K
20260427T12Z_MSC_RDPS_WindDir_IsbL-0200_RLatLon0.09_PT059H.grib2 2026-04-27 14:58 452K
20260427T12Z_MSC_RDPS_WindDir_IsbL-0225_RLatLon0.09_PT059H.grib2 2026-04-27 14:58 453K
20260427T12Z_MSC_RDPS_WindDir_IsbL-0250_RLatLon0.09_PT059H.grib2 2026-04-27 14:58 457K
20260427T12Z_MSC_RDPS_WindDir_IsbL-0275_RLatLon0.09_PT059H.grib2 2026-04-27 14:58 484K
20260427T12Z_MSC_RDPS_WindDir_IsbL-0300_RLatLon0.09_PT059H.grib2 2026-04-27 14:58 478K
20260427T12Z_MSC_RDPS_WindDir_IsbL-0350_RLatLon0.09_PT059H.grib2 2026-04-27 14:58 498K
20260427T12Z_MSC_RDPS_WindDir_IsbL-0400_RLatLon0.09_PT059H.grib2 2026-04-27 14:58 518K
20260427T12Z_MSC_RDPS_WindDir_IsbL-0450_RLatLon0.09_PT059H.grib2 2026-04-27 14:58 531K
20260427T12Z_MSC_RDPS_WindDir_IsbL-0500_RLatLon0.09_PT059H.grib2 2026-04-27 14:58 546K
20260427T12Z_MSC_RDPS_WindDir_IsbL-0550_RLatLon0.09_PT059H.grib2 2026-04-27 14:58 570K
20260427T12Z_MSC_RDPS_WindDir_IsbL-0600_RLatLon0.09_PT059H.grib2 2026-04-27 14:58 598K
20260427T12Z_MSC_RDPS_WindDir_IsbL-0650_RLatLon0.09_PT059H.grib2 2026-04-27 14:58 636K
20260427T12Z_MSC_RDPS_WindDir_IsbL-0700_RLatLon0.09_PT059H.grib2 2026-04-27 14:58 682K
20260427T12Z_MSC_RDPS_WindDir_IsbL-0750_RLatLon0.09_PT059H.grib2 2026-04-27 14:58 728K
20260427T12Z_MSC_RDPS_WindDir_IsbL-0800_RLatLon0.09_PT059H.grib2 2026-04-27 14:58 787K
20260427T12Z_MSC_RDPS_WindDir_IsbL-0850_RLatLon0.09_PT059H.grib2 2026-04-27 14:58 856K
20260427T12Z_MSC_RDPS_WindDir_IsbL-0875_RLatLon0.09_PT059H.grib2 2026-04-27 14:58 881K
20260427T12Z_MSC_RDPS_WindDir_IsbL-0900_RLatLon0.09_PT059H.grib2 2026-04-27 14:58 898K
20260427T12Z_MSC_RDPS_WindDir_IsbL-0925_RLatLon0.09_PT059H.grib2 2026-04-27 14:58 908K
20260427T12Z_MSC_RDPS_WindDir_IsbL-0950_RLatLon0.09_PT059H.grib2 2026-04-27 14:58 907K
20260427T12Z_MSC_RDPS_WindDir_IsbL-0970_RLatLon0.09_PT059H.grib2 2026-04-27 14:58 911K
20260427T12Z_MSC_RDPS_WindDir_IsbL-0985_RLatLon0.09_PT059H.grib2 2026-04-27 14:58 920K
20260427T12Z_MSC_RDPS_WindDir_IsbL-1000_RLatLon0.09_PT059H.grib2 2026-04-27 14:58 930K
20260427T12Z_MSC_RDPS_WindDir_IsbL-1015_RLatLon0.09_PT059H.grib2 2026-04-27 14:58 944K
20260427T12Z_MSC_RDPS_WindGust-Max_AGL-10m_RLatLon0.09_PT059H.grib2 2026-04-27 14:58 1.0M
20260427T12Z_MSC_RDPS_WindGust-Min_AGL-10m_RLatLon0.09_PT059H.grib2 2026-04-27 14:58 968K
20260427T12Z_MSC_RDPS_WindGust_AGL-10m_RLatLon0.09_PT059H.grib2 2026-04-27 14:58 1.0M
20260427T12Z_MSC_RDPS_WindSpeed_AGL-10m_RLatLon0.09_PT059H.grib2 2026-04-27 14:58 829K
20260427T12Z_MSC_RDPS_WindSpeed_AGL-120m_RLatLon0.09_PT059H.grib2 2026-04-27 14:58 527K
20260427T12Z_MSC_RDPS_WindSpeed_AGL-40m_RLatLon0.09_PT059H.grib2 2026-04-27 14:58 531K
20260427T12Z_MSC_RDPS_WindSpeed_AGL-80m_RLatLon0.09_PT059H.grib2 2026-04-27 14:58 528K
20260427T12Z_MSC_RDPS_WindSpeed_IsbL-0001_RLatLon0.09_PT059H.grib2 2026-04-27 14:58 254K
20260427T12Z_MSC_RDPS_WindSpeed_IsbL-0005_RLatLon0.09_PT059H.grib2 2026-04-27 14:58 385K
20260427T12Z_MSC_RDPS_WindSpeed_IsbL-0010_RLatLon0.09_PT059H.grib2 2026-04-27 14:58 309K
20260427T12Z_MSC_RDPS_WindSpeed_IsbL-0020_RLatLon0.09_PT059H.grib2 2026-04-27 14:58 327K
20260427T12Z_MSC_RDPS_WindSpeed_IsbL-0030_RLatLon0.09_PT059H.grib2 2026-04-27 14:58 324K
20260427T12Z_MSC_RDPS_WindSpeed_IsbL-0050_RLatLon0.09_PT059H.grib2 2026-04-27 14:58 352K
20260427T12Z_MSC_RDPS_WindSpeed_IsbL-0100_RLatLon0.09_PT059H.grib2 2026-04-27 14:58 486K
20260427T12Z_MSC_RDPS_WindSpeed_IsbL-0150_RLatLon0.09_PT059H.grib2 2026-04-27 14:58 389K
20260427T12Z_MSC_RDPS_WindSpeed_IsbL-0175_RLatLon0.09_PT059H.grib2 2026-04-27 14:58 417K
20260427T12Z_MSC_RDPS_WindSpeed_IsbL-0200_RLatLon0.09_PT059H.grib2 2026-04-27 14:58 455K
20260427T12Z_MSC_RDPS_WindSpeed_IsbL-0225_RLatLon0.09_PT059H.grib2 2026-04-27 14:58 460K
20260427T12Z_MSC_RDPS_WindSpeed_IsbL-0250_RLatLon0.09_PT059H.grib2 2026-04-27 14:58 464K
20260427T12Z_MSC_RDPS_WindSpeed_IsbL-0275_RLatLon0.09_PT059H.grib2 2026-04-27 14:58 484K
20260427T12Z_MSC_RDPS_WindSpeed_IsbL-0300_RLatLon0.09_PT059H.grib2 2026-04-27 14:58 478K
20260427T12Z_MSC_RDPS_WindSpeed_IsbL-0350_RLatLon0.09_PT059H.grib2 2026-04-27 14:58 489K
20260427T12Z_MSC_RDPS_WindSpeed_IsbL-0400_RLatLon0.09_PT059H.grib2 2026-04-27 14:58 471K
20260427T12Z_MSC_RDPS_WindSpeed_IsbL-0450_RLatLon0.09_PT059H.grib2 2026-04-27 14:58 469K
20260427T12Z_MSC_RDPS_WindSpeed_IsbL-0500_RLatLon0.09_PT059H.grib2 2026-04-27 14:58 472K
20260427T12Z_MSC_RDPS_WindSpeed_IsbL-0550_RLatLon0.09_PT059H.grib2 2026-04-27 14:58 591K
20260427T12Z_MSC_RDPS_WindSpeed_IsbL-0600_RLatLon0.09_PT059H.grib2 2026-04-27 14:58 600K
20260427T12Z_MSC_RDPS_WindSpeed_IsbL-0650_RLatLon0.09_PT059H.grib2 2026-04-27 14:58 618K
20260427T12Z_MSC_RDPS_WindSpeed_IsbL-0700_RLatLon0.09_PT059H.grib2 2026-04-27 14:58 683K
20260427T12Z_MSC_RDPS_WindSpeed_IsbL-0750_RLatLon0.09_PT059H.grib2 2026-04-27 14:58 713K
20260427T12Z_MSC_RDPS_WindSpeed_IsbL-0800_RLatLon0.09_PT059H.grib2 2026-04-27 14:58 754K
20260427T12Z_MSC_RDPS_WindSpeed_IsbL-0850_RLatLon0.09_PT059H.grib2 2026-04-27 14:58 806K
20260427T12Z_MSC_RDPS_WindSpeed_IsbL-0875_RLatLon0.09_PT059H.grib2 2026-04-27 14:58 825K
20260427T12Z_MSC_RDPS_WindSpeed_IsbL-0900_RLatLon0.09_PT059H.grib2 2026-04-27 14:58 841K
20260427T12Z_MSC_RDPS_WindSpeed_IsbL-0925_RLatLon0.09_PT059H.grib2 2026-04-27 14:58 852K
20260427T12Z_MSC_RDPS_WindSpeed_IsbL-0950_RLatLon0.09_PT059H.grib2 2026-04-27 14:58 850K
20260427T12Z_MSC_RDPS_WindSpeed_IsbL-0970_RLatLon0.09_PT059H.grib2 2026-04-27 14:58 848K
20260427T12Z_MSC_RDPS_WindSpeed_IsbL-0985_RLatLon0.09_PT059H.grib2 2026-04-27 14:58 845K
20260427T12Z_MSC_RDPS_WindSpeed_IsbL-1000_RLatLon0.09_PT059H.grib2 2026-04-27 14:58 840K
20260427T12Z_MSC_RDPS_WindSpeed_IsbL-1015_RLatLon0.09_PT059H.grib2 2026-04-27 14:58 831K
20260427T12Z_MSC_RDPS_WindU_AGL-10m_RLatLon0.09_PT059H.grib2 2026-04-27 14:58 428K
20260427T12Z_MSC_RDPS_WindU_AGL-120m_RLatLon0.09_PT059H.grib2 2026-04-27 14:58 412K
20260427T12Z_MSC_RDPS_WindU_AGL-40m_RLatLon0.09_PT059H.grib2 2026-04-27 14:58 530K
20260427T12Z_MSC_RDPS_WindU_AGL-80m_RLatLon0.09_PT059H.grib2 2026-04-27 14:58 528K
20260427T12Z_MSC_RDPS_WindU_IsbL-0001_RLatLon0.09_PT059H.grib2 2026-04-27 14:58 293K
20260427T12Z_MSC_RDPS_WindU_IsbL-0005_RLatLon0.09_PT059H.grib2 2026-04-27 14:58 288K
20260427T12Z_MSC_RDPS_WindU_IsbL-0010_RLatLon0.09_PT059H.grib2 2026-04-27 14:58 300K
20260427T12Z_MSC_RDPS_WindU_IsbL-0020_RLatLon0.09_PT059H.grib2 2026-04-27 14:58 316K
20260427T12Z_MSC_RDPS_WindU_IsbL-0030_RLatLon0.09_PT059H.grib2 2026-04-27 14:58 354K
20260427T12Z_MSC_RDPS_WindU_IsbL-0050_RLatLon0.09_PT059H.grib2 2026-04-27 14:58 345K
20260427T12Z_MSC_RDPS_WindU_IsbL-0100_RLatLon0.09_PT059H.grib2 2026-04-27 14:58 440K
20260427T12Z_MSC_RDPS_WindU_IsbL-0150_RLatLon0.09_PT059H.grib2 2026-04-27 14:58 404K
20260427T12Z_MSC_RDPS_WindU_IsbL-0175_RLatLon0.09_PT059H.grib2 2026-04-27 14:58 429K
20260427T12Z_MSC_RDPS_WindU_IsbL-0200_RLatLon0.09_PT059H.grib2 2026-04-27 14:58 446K
20260427T12Z_MSC_RDPS_WindU_IsbL-0225_RLatLon0.09_PT059H.grib2 2026-04-27 14:58 451K
20260427T12Z_MSC_RDPS_WindU_IsbL-0250_RLatLon0.09_PT059H.grib2 2026-04-27 14:58 353K
20260427T12Z_MSC_RDPS_WindU_IsbL-0275_RLatLon0.09_PT059H.grib2 2026-04-27 14:58 368K
20260427T12Z_MSC_RDPS_WindU_IsbL-0300_RLatLon0.09_PT059H.grib2 2026-04-27 14:58 362K
20260427T12Z_MSC_RDPS_WindU_IsbL-0350_RLatLon0.09_PT059H.grib2 2026-04-27 14:58 475K
20260427T12Z_MSC_RDPS_WindU_IsbL-0400_RLatLon0.09_PT059H.grib2 2026-04-27 14:58 474K
20260427T12Z_MSC_RDPS_WindU_IsbL-0450_RLatLon0.09_PT059H.grib2 2026-04-27 14:58 472K
20260427T12Z_MSC_RDPS_WindU_IsbL-0500_RLatLon0.09_PT059H.grib2 2026-04-27 14:58 457K
20260427T12Z_MSC_RDPS_WindU_IsbL-0550_RLatLon0.09_PT059H.grib2 2026-04-27 14:58 460K
20260427T12Z_MSC_RDPS_WindU_IsbL-0600_RLatLon0.09_PT059H.grib2 2026-04-27 14:58 469K
20260427T12Z_MSC_RDPS_WindU_IsbL-0650_RLatLon0.09_PT059H.grib2 2026-04-27 14:58 486K
20260427T12Z_MSC_RDPS_WindU_IsbL-0700_RLatLon0.09_PT059H.grib2 2026-04-27 14:58 507K
20260427T12Z_MSC_RDPS_WindU_IsbL-0750_RLatLon0.09_PT059H.grib2 2026-04-27 14:58 534K
20260427T12Z_MSC_RDPS_WindU_IsbL-0800_RLatLon0.09_PT059H.grib2 2026-04-27 14:58 570K
20260427T12Z_MSC_RDPS_WindU_IsbL-0850_RLatLon0.09_PT059H.grib2 2026-04-27 14:58 616K
20260427T12Z_MSC_RDPS_WindU_IsbL-0875_RLatLon0.09_PT059H.grib2 2026-04-27 14:58 631K
20260427T12Z_MSC_RDPS_WindU_IsbL-0900_RLatLon0.09_PT059H.grib2 2026-04-27 14:58 643K
20260427T12Z_MSC_RDPS_WindU_IsbL-0925_RLatLon0.09_PT059H.grib2 2026-04-27 14:58 651K
20260427T12Z_MSC_RDPS_WindU_IsbL-0950_RLatLon0.09_PT059H.grib2 2026-04-27 14:58 647K
20260427T12Z_MSC_RDPS_WindU_IsbL-0970_RLatLon0.09_PT059H.grib2 2026-04-27 14:58 645K
20260427T12Z_MSC_RDPS_WindU_IsbL-0985_RLatLon0.09_PT059H.grib2 2026-04-27 14:58 782K
20260427T12Z_MSC_RDPS_WindU_IsbL-1000_RLatLon0.09_PT059H.grib2 2026-04-27 14:58 778K
20260427T12Z_MSC_RDPS_WindU_IsbL-1015_RLatLon0.09_PT059H.grib2 2026-04-27 14:58 771K
20260427T12Z_MSC_RDPS_WindV_AGL-10m_RLatLon0.09_PT059H.grib2 2026-04-27 14:58 429K
20260427T12Z_MSC_RDPS_WindV_AGL-120m_RLatLon0.09_PT059H.grib2 2026-04-27 14:58 525K
20260427T12Z_MSC_RDPS_WindV_AGL-40m_RLatLon0.09_PT059H.grib2 2026-04-27 14:58 529K
20260427T12Z_MSC_RDPS_WindV_AGL-80m_RLatLon0.09_PT059H.grib2 2026-04-27 14:58 526K
20260427T12Z_MSC_RDPS_WindV_IsbL-0001_RLatLon0.09_PT059H.grib2 2026-04-27 14:58 245K
20260427T12Z_MSC_RDPS_WindV_IsbL-0005_RLatLon0.09_PT059H.grib2 2026-04-27 14:58 288K
20260427T12Z_MSC_RDPS_WindV_IsbL-0010_RLatLon0.09_PT059H.grib2 2026-04-27 14:58 302K
20260427T12Z_MSC_RDPS_WindV_IsbL-0020_RLatLon0.09_PT059H.grib2 2026-04-27 14:58 319K
20260427T12Z_MSC_RDPS_WindV_IsbL-0030_RLatLon0.09_PT059H.grib2 2026-04-27 14:58 356K
20260427T12Z_MSC_RDPS_WindV_IsbL-0050_RLatLon0.09_PT059H.grib2 2026-04-27 14:58 344K
20260427T12Z_MSC_RDPS_WindV_IsbL-0100_RLatLon0.09_PT059H.grib2 2026-04-27 14:58 339K
20260427T12Z_MSC_RDPS_WindV_IsbL-0150_RLatLon0.09_PT059H.grib2 2026-04-27 14:58 402K
20260427T12Z_MSC_RDPS_WindV_IsbL-0175_RLatLon0.09_PT059H.grib2 2026-04-27 14:58 428K
20260427T12Z_MSC_RDPS_WindV_IsbL-0200_RLatLon0.09_PT059H.grib2 2026-04-27 14:58 345K
20260427T12Z_MSC_RDPS_WindV_IsbL-0225_RLatLon0.09_PT059H.grib2 2026-04-27 14:58 348K
20260427T12Z_MSC_RDPS_WindV_IsbL-0250_RLatLon0.09_PT059H.grib2 2026-04-27 14:58 375K
20260427T12Z_MSC_RDPS_WindV_IsbL-0275_RLatLon0.09_PT059H.grib2 2026-04-27 14:58 389K
20260427T12Z_MSC_RDPS_WindV_IsbL-0300_RLatLon0.09_PT059H.grib2 2026-04-27 14:58 384K
20260427T12Z_MSC_RDPS_WindV_IsbL-0350_RLatLon0.09_PT059H.grib2 2026-04-27 14:58 392K
20260427T12Z_MSC_RDPS_WindV_IsbL-0400_RLatLon0.09_PT059H.grib2 2026-04-27 14:58 368K
20260427T12Z_MSC_RDPS_WindV_IsbL-0450_RLatLon0.09_PT059H.grib2 2026-04-27 14:58 473K
20260427T12Z_MSC_RDPS_WindV_IsbL-0500_RLatLon0.09_PT059H.grib2 2026-04-27 14:58 473K
20260427T12Z_MSC_RDPS_WindV_IsbL-0550_RLatLon0.09_PT059H.grib2 2026-04-27 14:58 476K
20260427T12Z_MSC_RDPS_WindV_IsbL-0600_RLatLon0.09_PT059H.grib2 2026-04-27 14:58 484K
20260427T12Z_MSC_RDPS_WindV_IsbL-0650_RLatLon0.09_PT059H.grib2 2026-04-27 14:58 500K
20260427T12Z_MSC_RDPS_WindV_IsbL-0700_RLatLon0.09_PT059H.grib2 2026-04-27 14:58 503K
20260427T12Z_MSC_RDPS_WindV_IsbL-0750_RLatLon0.09_PT059H.grib2 2026-04-27 14:58 529K
20260427T12Z_MSC_RDPS_WindV_IsbL-0800_RLatLon0.09_PT059H.grib2 2026-04-27 14:58 565K
20260427T12Z_MSC_RDPS_WindV_IsbL-0850_RLatLon0.09_PT059H.grib2 2026-04-27 14:58 611K
20260427T12Z_MSC_RDPS_WindV_IsbL-0875_RLatLon0.09_PT059H.grib2 2026-04-27 14:58 628K
20260427T12Z_MSC_RDPS_WindV_IsbL-0900_RLatLon0.09_PT059H.grib2 2026-04-27 14:58 640K
20260427T12Z_MSC_RDPS_WindV_IsbL-0925_RLatLon0.09_PT059H.grib2 2026-04-27 14:58 788K
20260427T12Z_MSC_RDPS_WindV_IsbL-0950_RLatLon0.09_PT059H.grib2 2026-04-27 14:58 785K
20260427T12Z_MSC_RDPS_WindV_IsbL-0970_RLatLon0.09_PT059H.grib2 2026-04-27 14:58 786K
20260427T12Z_MSC_RDPS_WindV_IsbL-0985_RLatLon0.09_PT059H.grib2 2026-04-27 14:58 783K
20260427T12Z_MSC_RDPS_WindV_IsbL-1000_RLatLon0.09_PT059H.grib2 2026-04-27 14:58 778K
20260427T12Z_MSC_RDPS_WindV_IsbL-1015_RLatLon0.09_PT059H.grib2 2026-04-27 14:58 818K